Location: Holyhead Bay
(53.3667°N, 4.6667°W)
Time: 00:48:24
(UTC+00:00)

ADEOS Rocket - Pass Details

Date: 19 April 2021
Orbit: 859 x 1306 km, 98.7° (Epoch: 15 May)

Event Time Altitude Azimuth Distance (km) Brightness Sun altitude
Exits shadow 02:14:22 - 147° (SSE) 3,349 5.5 -20.8°
Reaches altitude 10° 02:15:43 10° 145° (SE) 2,847 5.2 -20.7°
Maximum altitude 02:22:06 64° 67° (ENE) 1,243 3.7 -20.2°
Drops below altitude 10° 02:29:15 10° 348° (NNW) 3,170 6.2 -19.6°
Sets 02:32:02 0° 346° (NNW) 4,189 6.9 -19.4°
